SHIJIAN-21 (SJ-21)

Last updated on Wed Sep 17 2025 00:02:50 GMT+0000 (Coordinated Universal Time)

1 49330U 21094A 25258.88894279 -.00000366 00000+0 00000+0 0 9996 2 49330 4.4906 62.7675 0056293 164.7830 214.9009 1.00268381 2603
UTC large
Height (km)
Speed (km/s)
/
Latitude / Longitude
Inclination (degrees)
Orbital Period (minutes)
Azimuth
Elevation
Range (km)
Doppler Factor

Next 0 passes for location: London (51.5072 / 0.1276)

Sorry there are no passes over London.